Regional Weather Roundup
Issued by NWS

Home | Current Version | Previous Version | Graphics & Text | Print | Product List | Glossary On
Versions: 1 2 3 4 5 6 7 8 9 10 11 12 13 14 15 16 17 18 19 20 21 22 23 24 25 26 27 28 29 30 31 32 33 34 35 36 37 38 39 40 41 42 43 44 45 46 47 48 49 50
000
ASUS43 KMPX 240201
RWRMN
WEATHER ROUNDUP FOR MINNESOTA
NATIONAL WEATHER SERVICE TWIN CITIES/CHANHASSEN MN
900 PM CDT SAT JUL 23 2016


NOTE: "FAIR" INDICATES FEW OR NO CLOUDS BELOW 12,000 FEET WITH NO
SIGNIFICANT WEATHER AND/OR OBSTRUCTIONS TO VISIBILITY. N/A MEANS
CURRENT SKY AND/OR WEATHER CONDITIONS ARE NOT AVAILABLE.

MNZ060>063-068>070-240300-
   Twin Cities Metro

CITY           SKY/WX    TMP DP  RH WIND       PRES   REMARKS
TWIN CITIES    PTCLDY    75  71  87 SE7       29.78S
ST PAUL        CLEAR     74  71  91 E6        29.78S
CRYSTAL        CLEAR     74  69  85 E3        29.77S
BLAINE         CLEAR     75  73  94 E5        29.79S
LAKEVILLE      CLEAR     73  73 100 CALM      29.79R
EDEN PRAIRIE   CLEAR     77  72  84 E3        29.77S
LAKEVILLE      CLEAR     73  73 100 CALM      29.79R
SOUTH ST PAUL  CLEAR     74  72  94 CALM      29.78S
LAKE ELMO      FAIR      72  72 100 CALM      29.80S
$$
MNZ001>005-007-008-013>017-022>024-027-028-240300-
   Northwest Minnesota

CITY           SKY/WX    TMP DP  RH WIND       PRES   REMARKS
BEMIDJI        CLOUDY    75  68  78 S7        29.75S
HALLOCK        CLOUDY    72  70  94 SW6       29.68S
ROSEAU         CLOUDY    73  66  78 SW5       29.70S
WARROAD        CLOUDY    73  70  88 W3        29.70S
THIEF RVR FALL MOCLDY    73  72  96 CALM      29.71F
CROOKSTON      PTCLDY    72  72 100 NW3       29.71S
FOSSTON        CLOUDY    73  70  88 S6        29.73R
DETROIT LAKES  CLOUDY    75  70  83 SW6       29.73F
MOORHEAD       CLOUDY    73  72  94 N6        29.71R
PARK RAPIDS    CLOUDY    76  69  79 SE12      29.75F
MAHNOMEN       RAIN      74  71  92 S3        29.71F
$$
MNZ006-009>011-018-025>026-240300-
   North Central Minnesota

CITY           SKY/WX    TMP DP  RH WIND       PRES   REMARKS
BAUDETTE       CLOUDY    75  69  81 S5        29.71S
FLAG ISLAND    MOCLDY    73  70  88 S3        29.69R
INTL FALLS     CLOUDY    72  65  78 SE7       29.73F
WASKISH        CLOUDY    75  68  78 S5        29.72S
BIG FORK       CLEAR     72  64  78 SE6       29.76F
LONGVILLE      CLEAR     72  66  83 SE3       29.77S
GRAND RAPIDS   MOCLDY    72  65  78 SE9       29.80F
ORR            MOCLDY    72  63  73 SE10G17   29.76F
COOK           CLEAR     72  64  78 SE6       29.81F
WALKER         CLOUDY    73  67  84 SE7       29.76S
$$
MNZ012-019>021-037-240300-
   Northeast Minnesota

CITY           SKY/WX    TMP DP  RH WIND       PRES   REMARKS
DULUTH         CLOUDY    65  60  84 E10       29.84F
ELY            CLEAR     68  61  77 SE9       29.84F
HIBBING        CLEAR     68  63  84 SE6       29.81F
EVELETH        CLEAR     70  65  84 SE3       29.83F
DULUTH HARBOR  CLOUDY    64  61  88 NE9       29.84S
TWO HARBORS    PTCLDY    70  63  78 CALM      29.82F
SILVER BAY     CLEAR     66  59  77 NE7       29.84S
GRAND MARAIS     N/A     71  56  58 E8G17     29.84F
G MARAIS ARPRT CLOUDY    66  55  68 E8        29.90S
$$
MNZ029>031-032-039>041-046>048-054>057-064-240300-
   West Central Minnesota

CITY           SKY/WX    TMP DP  RH WIND       PRES   REMARKS
FERGUS FALLS   CLOUDY    79  72  78 S9        29.72F
WHEATON        TSTM      81  77  89 S3        29.72S
MORRIS         PTCLDY    77  73  88 SE12      29.71F
ALEXANDRIA     CLOUDY    76  72  87 SE10      29.76F
ELBOW LAKE     FAIR      76  73  91 E10       29.72F
WADENA         CLOUDY    73  70  88 SE7       29.74F
GLENWOOD       CLOUDY    73  72  94 SE10      29.75F
APPLETON       PTCLDY    79  73  83 SE10      29.71S
BENSON         CLEAR     77  72  83 S5        29.72F
ORTONVILLE     PTCLDY    79  75  89 SE8       29.71S THUNDER
MADISON        CLEAR     81  77  89 SE6       29.70F
WILLMAR        FAIR      77  73  88 SE7       29.75F
$$
MNZ033>034-036-042>043-049>051-058-059-240300-
   Central Minnesota

CITY           SKY/WX    TMP DP  RH WIND       PRES   REMARKS
ST CLOUD       MOCLDY    74  73  97 SE5       29.77F
SAUK CENTRE    CLOUDY    74  72  91 SE8       29.76F
PAYNESVILLE    CLEAR     75  74  97 SE10      29.76F
AITKIN         PTCLDY    72  64  78 E3        29.78F
PINE RIVER     CLEAR     72  66  83 SE5       29.81S
BRAINERD       CLOUDY    72  69  90 SE5       29.77F
STAPLES        CLOUDY    73  66  78 SE9       29.76F
LONG PRAIRIE   CLOUDY    73  70  88 E5        29.77F
LITTLE FALLS   CLOUDY    73  68  83 SE5       29.77F
LITCHFIELD     CLEAR     75  75 100 SE6       29.77F
BUFFALO        CLOUDY    74  70  86 CALM      29.79R
MAPLE LAKE     CLOUDY    75  73  91 CALM      29.79R
HUTCHINSON     CLOUDY    76  75  95 E5        29.78S
$$
MNZ037-044-045-052-053-240300-
   East Central Minnesota

CITY           SKY/WX    TMP DP  RH WIND       PRES   REMARKS
PRINCETON      CLEAR     73  70  88 CALM      29.79S
MORA           CLOUDY    70  68  94 CALM      29.82S
CAMBRIDGE      MOCLDY    75  66  73 SE3       29.78S
RUSH CITY      CLOUDY    72  69  90 CALM      29.81S
MOOSE LAKE     CLOUDY    68  63  83 E5        29.81S
HINCKLEY       CLOUDY    72  70  94 E5        29.81S
CLOQUET        CLOUDY    64  59  82 E6        29.84F
MCGREGOR       CLEAR     68  64  88 SE6       29.80F
$$
MNZ071>073-080-081-089-090-097-098-240300-
   Southwest Minnesota

CITY           SKY/WX    TMP DP  RH WIND       PRES   REMARKS
MONTEVIDEO     CLEAR     79  77  94 S12       29.73F
GRANITE FALLS  PTCLDY    82  79  90 E5        29.74F HX  93
CANBY          CLEAR     83  79  88 SE6       29.73S HX  95
MARSHALL       PTCLDY    84  79  85 SE7       29.73S HX  96
REDWOOD FALLS  CLEAR     82  76  81 S8        29.73F
OLIVIA         CLEAR     77  73  88 E7        29.74F
PIPESTONE      CLEAR     82  79  89 S3        29.77S HX  93
WINDOM         CLEAR     82  75  78 S5        29.77S
WORTHINGTON    CLEAR     81  77  88 S6        29.79R
JACKSON        CLEAR     81  73  78 S5        29.79S
TRACY          PTCLDY    84  79  85 S7        29.75F HX  95
SLAYTON        CLEAR     80  77  90 SE6       29.79R
$$
MNZ065>067-074>077-082>085-091>093-240300-
   South Central Minnesota

CITY           SKY/WX    TMP DP  RH WIND       PRES   REMARKS
MANKATO        CLOUDY    79  72  78 SE9       29.77S
NEW ULM        CLEAR     79  77  94 SE5       29.76S
ST JAMES       CLEAR     75  72  88 SE6       29.77S
FAIRMONT       CLEAR     79  77  94 E6        29.77S
GLENCOE        PTCLDY    78  75  92 SE5       29.77S
FARIBAULT      CLOUDY    77  72  83 E5        29.80R
OWATONNA       CLEAR     75  70  83 SE5       29.80R
WASECA         PTCLDY    73  70  88 SE6       29.80R
ALBERT LEA     MOCLDY    75  73  94 SE5       29.79F
$$
MNZ078>079-086>088-094>096-240300-
   Southeast Minnesota

CITY           SKY/WX    TMP DP  RH WIND       PRES   REMARKS
ROCHESTER      MOCLDY    73  70  90 S8        29.82F
RED WING       CLEAR     75  70  83 SE8       29.79S
STANTON        CLEAR     75  70  83 SE5       29.78S
DODGE CENTER   PTCLDY    73  70  88 SE8       29.82S
WINONA         MOCLDY    73  70  88 SE3       29.82R
AUSTIN         CLOUDY    73  70  88 SE3       29.81R
PRESTON        PTCLDY    71  67  88 SE6       29.84S
$$
ABBREVIATIONS USED IN REMARKS
   TC - TEMPERATURES IN CELSIUS
  WCI - WIND CHILL INDEX
   HX - HEAT INDEX
  VSB - VISIBILITY
$$




USA.gov is the U.S. government's official web portal to all federal, state and local government web resources and services.